Location: Hylvaty SDH
(49.9612°N, 16.4057°E)
Time: 00:51:35
(UTC+02:00)

Tiros 1 - All Passes

Search period start: 02 October 2020 00:00
Search period end: 12 October 2020 00:00
Orbit: 630 x 664 km, 48.4° (Epoch: 01 October)

Date Brightness Start Highest point End Pass type
(mag) Time Alt. Az. Time Alt. Az. Time Alt. Az.
02 Oct - 13:39:31 10° S 13:42:59 21° SE 13:46:29 10° E daylight
02 Oct - 15:19:57 10° WSW 15:24:32 54° SSE 15:29:12 10° E daylight
02 Oct - 17:01:50 10° W 17:06:35 75° S 17:11:23 10° E daylight
02 Oct - 18:44:00 10° W 18:48:36 48° SSW 18:53:13 10° SE daylight
02 Oct - 20:26:56 10° W 20:30:04 17° SW 20:33:12 10° S visible
03 Oct - 14:04:23 10° SW 14:08:38 34° SSE 14:12:55 10° E daylight
03 Oct - 15:45:46 10° WSW 15:50:28 69° S 15:55:14 10° E daylight
03 Oct - 17:27:51 10° W 17:32:34 67° S 17:37:20 10° ESE daylight
03 Oct - 19:10:09 10° W 19:14:23 31° SSW 19:18:36 10° SSE visible
04 Oct - 12:49:36 10° S 12:52:55 19° SE 12:56:15 10° E daylight
04 Oct - 14:29:52 10° SW 14:34:25 52° SSE 14:39:03 10° E daylight
04 Oct - 16:11:43 10° W 16:16:27 75° S 16:21:14 10° E daylight
04 Oct - 17:53:52 10° W 17:58:29 50° SSW 18:03:07 10° SE daylight
04 Oct - 19:36:42 10° W 19:39:59 19° SW 19:43:17 10° S visible
05 Oct - 13:14:22 10° SSW 13:18:32 33° SSE 13:22:45 10° E daylight
05 Oct - 14:55:40 10° WSW 15:00:20 68° S 15:05:05 10° E daylight
05 Oct - 16:37:44 10° W 16:42:26 68° S 16:47:12 10° ESE daylight
05 Oct - 18:20:01 10° W 18:24:17 33° SSW 18:28:33 10° SE daylight
06 Oct - 11:59:42 10° S 12:02:50 18° SE 12:06:01 10° E daylight
06 Oct - 13:39:47 10° SW 13:44:19 50° SSE 13:48:54 10° E daylight
06 Oct - 15:21:37 10° W 15:26:20 75° S 15:31:06 10° E daylight
06 Oct - 17:03:45 10° W 17:08:22 52° SSW 17:13:00 10° SE daylight
06 Oct - 18:46:30 10° W 18:49:54 20° SW 18:53:19 10° S visible
07 Oct - 12:24:21 10° SSW 12:28:27 31° SSE 12:32:35 10° E daylight
07 Oct - 14:05:34 10° WSW 14:10:14 67° SSE 14:14:56 10° E daylight
07 Oct - 15:47:37 10° W 15:52:19 69° S 15:57:04 10° ESE daylight
07 Oct - 17:29:52 10° W 17:34:10 35° SSW 17:38:29 10° SE daylight
08 Oct - 11:09:48 10° S 11:12:46 17° SE 11:15:45 10° E daylight
08 Oct - 12:49:43 10° SW 12:54:12 48° SSE 12:58:45 10° E daylight
08 Oct - 14:31:30 10° W 14:36:12 75° S 14:40:56 10° E daylight
08 Oct - 16:13:38 10° W 16:18:15 54° SSW 16:22:53 10° ESE daylight
08 Oct - 17:56:18 10° W 17:59:49 21° SW 18:03:21 10° S daylight
09 Oct - 11:34:20 10° SSW 11:38:21 29° SSE 11:42:25 10° E daylight
09 Oct - 13:15:28 10° WSW 13:20:06 65° SSE 13:24:48 10° E daylight
09 Oct - 14:57:30 10° W 15:02:11 70° S 15:06:56 10° ESE daylight
09 Oct - 16:39:44 10° W 16:44:04 36° SSW 16:48:25 10° SE daylight
09 Oct - 18:24:08 10° WSW 18:25:18 11° SW 18:26:28 10° SSW daylight
10 Oct - 10:19:57 10° S 10:22:42 16° SE 10:25:28 10° ESE daylight
10 Oct - 11:59:39 10° SW 12:04:06 46° SSE 12:08:36 10° E daylight
10 Oct - 13:41:24 10° W 13:46:04 74° S 13:50:48 10° E daylight
10 Oct - 15:23:31 10° W 15:28:08 56° SSW 15:32:47 10° ESE daylight
10 Oct - 17:06:06 10° W 17:09:44 22° SW 17:13:23 10° SSE daylight
11 Oct - 10:44:20 10° SSW 10:48:16 28° SSE 10:52:14 10° E daylight
11 Oct - 12:25:23 10° WSW 12:29:59 63° SSE 12:34:39 10° E daylight
11 Oct - 14:07:23 10° W 14:12:04 71° S 14:16:47 10° ESE daylight
11 Oct - 15:49:36 10° W 15:53:57 38° SSW 15:58:21 10° SE daylight
11 Oct - 17:33:34 10° WSW 17:35:14 12° SW 17:36:54 10° SSW daylight
